Vertical_Velocity
-5 -1 -2 -0 -3 -3 1 -3 -2 1 -3 -3 -6 -0 -2 1 1 0 1 1 1 1 0 3 2 3 1 0 1 -1 2 2 1 2 3 3 0 4 2 3 -6 0 1 1
-3 -4 -3 -3 -1 -6 -5 -6 -3 -5 2 -8 -5 -0 -2 0 2 1 1 2 1 1 1 3 0 1 1 2 -3 -3 1 2 -1 -3 2 -6 -5 3 12 1 3 1 -0 4
-4 -4 -6 -3 -3 -4 -5 -7 -3 -7 -3 -1 -1 -1 -1 -1 0 -1 -0 0 -0 0 -0 0 0 -2 0 -0 -2 1 -0 1 -1 -14 -3 5 -4 -2 -0 3 -4 6 9 8
-7 -1 -2 -1 -1 -6 -7 -3 -2 -5 -7 -5 -2 1 1 1 -0 0 -2 -2 -0 -2 1 -1 -1 0 2 -0 -1 -1 -1 -3 1 1 0 1 5 3 -2 -9 8 -6 9 -5
-6 -4 0 -13 1 -4 -4 -6 -4 -2 -0 -3 0 -1 -0 0 -1 -0 -0 1 1 -0 -2 -1 0 1 -4 0 0 -6 -2 0 0 -0 3 1 -6 -1 5 -0 1 3 7 -1
-3 -7 -4 -7 -5 -8 -0 -11 -6 1 -1 -3 -0 -3 -0 1 1 0 1 -0 1 3 -0 1 1 1 1 2 -2 -4 -1 -0 1 2 1 -2 -7 -1 1 9 5 3 -8 3
-5 -2 -7 -4 -9 -5 -2 -8 -1 -3 -4 -0 -3 -1 1 0 0 1 1 2 1 -0 0 2 2 1 3 1 -0 1 3 2 2 1 1 -9 3 8 4 1 3 4 5 4
-3 -4 -4 -5 -8 -7 -1 -4 -3 -3 -3 -1 -0 1 0 3 2 -2 -1 0 1 -0 1 1 1 0 1 2 1 0 2 2 -1 -3 -1 2 -6 -1 -2 -0 2 -1 2 4
-3 -7 -2 -7 -0 -7 -8 -4 -5 -3 0 -6 -2 -2 -1 -2 2 -0 -2 1 -0 0 -4 -8 -6 -5 1 -10 2 4 3 4 -3 0 -4 -3 5 2 2 1 2 6 5 3
-12 -6 2 -4 -2 -8 -7 -5 -5 -2 -4 -2 -2 -6 -3 -1 -0 -2 2 1 -1 1 1 -8 -2 -1 2 -10 -4 -24 -21 -16 -11 1 0 2 3 0 -2 -6 -10 -3 3 2
-9 -2 -4 -6 -1 -5 -1 -8 -6 -4 -0 -3 -3 -0 2 2 -5 -8 3 -4 -1 -4 -12 -2 1 -7 -1 3 5 2 -0 -4 -1 -1 -0 -5 0 -1 -10 8 5 0 2 0
-9 3 6 -6 -2 -4 -5 -6 -6 -5 2 -4 -1 -1 1 -3 -2 -1 -6 -5 -6 -4 -1 -1 -8 -3 1 2 -7 -0 -6 4 3 5 -3 3 7 1 5 -0 -0 -1 2 4
-8 5 -8 -1 -3 -4 -8 -6 -5 1 -2 -8 2 -3 -2 0 -1 -2 -3 -3 -3 -2 1 -7 -8 -6 -5 -2 0 -3 1 1 -0 -4 -2 3 2 5 7 4 3 1 1 -1
-2 -3 -7 2 -2 -6 -3 -3 -4 -1 -2 -6 -4 1 1 -1 -1 -1 -2 -3 -3 -3 -3 -5 -3 -7 -3 -3 2 0 1 -1 -0 0 3 -5 4 5 -0 2 3 4 7 0
-1 -7 0 1 -3 -6 -1 -2 -5 -7 -5 -3 -3 2 -3 -0 1 1 -0 -1 -1 0 -3 -4 -4 0 3 3 0 -4 0 -2 -2 -8 1 5 4 -1 -1 -2 -1 1 -4 4
-4 -4 1 -0 -4 -5 -1 -7 -7 1 -2 -7 -3 1 -4 0 -0 -1 -1 0 2 2 3 1 0 1 3 -4 -2 6 5 6 8 -2 1 2 2 3 2 -2 -1 -3 -0 0
-2 1 -3 2 -7 -0 -14 -11 2 -1 -0 -16 -4 -0 1 -3 1 1 1 2 1 1 1 1 1 2 1 0 -2 7 6 7 3 4 -3 3 1 -11 1 1 1 2 1 -4
0 0 -3 1 -9 -1 0 -6 -3 -6 -10 -12 -7 -1 -4 2 1 -0 1 2 3 2 2 1 2 3 1 -3 8 5 4 -1 -0 0 5 4 2 4 3 3 -0 0 1 1
-0 -1 2 -3 -7 -10 -8 0 -8 -5 -7 -4 3 -5 -10 -1 -0 -0 -1 1 0 2 1 1 5 3 -2 12 0 1 -0 -2 -7 -1 1 -1 -1 -2 1 0 4 1 0 -0
-3 2 4 -4 -13 -2 -5 -6 -3 -7 -7 -14 -3 2 -1 -1 -0 1 -1 1 1 1 -0 -4 0 2 12 -0 3 2 -1 -1 -1 -9 -10 -3 -1 -4 -7 -4 -2 -2 -2 -1
-0 -1 -1 -6 -5 -6 -5 -7 -8 -3 -1 -7 -4 -1 -7 -8 -7 -1 -2 -2 1 2 1 2 2 2 -6 -0 2 2 2 1 3 5 5 4 2 -3 -1 2 -0 -4 -2 -0
0 -3 -2 -6 -8 -3 -6 -8 -2 -2 -3 5 -2 -10 -6 -4 -4 -2 -1 -1 2 -1 2 3 -1 -1 3 1 -2 1 1 -1 1 5 1 2 3 3 1 -1 0 4 2 -1
-1 -2 -5 -8 -11 -10 -11 -6 -5 1 2 3 -2 -4 -4 -7 -3 -1 -1 2 -2 2 -1 1 1 -1 4 2 0 0 4 3 3 -0 2 4 4 4 4 2 3 0 -2 2
-0 -5 -7 -8 -6 -4 -1 -1 -1 3 -1 -0 2 -1 -7 -1 1 -5 -2 -1 -1 -3 -0 -2 1 1 -1 2 2 -1 -2 1 -0 2 3 1 -0 -1 2 4 4 1 -1 0
-4 -5 -7 -7 -5 -3 -2 0 1 -1 -2 -3 -2 -4 -1 -4 -2 -8 -2 -5 -12 1 -1 5 2 2 -1 -0 1 1 -0 -1 0 0 -0 3 3 1 -0 2 -0 -0 1 0
-10 -8 -6 -4 -3 -1 1 1 1 -2 -2 -1 -9 -4 -1 -1 -6 -2 -3 1 -1 -11 0 8 -1 2 2 0 3 2 1 3 1 1 1 2 -1 -2 -1 2 1 2 1 0
-4 -5 -2 -5 -3 -3 -2 -0 -1 -1 -2 -5 -6 -6 -10 -3 -3 -3 2 3 3 2 2 5 3 -3 -2 -1 4 1 3 4 2 2 3 -2 -0 2 0 1 -0 -1 1 0
Height
3069 3063 3054 3047 3039 3030 3022 3014 3006 2998 2991 2988 2980 2976 2974 2971 2967 2964 2961 2957 2953 2950 2946 2944 2944 2943 2941 2937 2933 2927 2925 2924 2922 2923 2921 2919 2915 2908 2904 2900 2895 2892 2892 2910
3067 3059 3052 3044 3036 3026 3018 3009 3002 2995 2988 2984 2981 2976 2974 2971 2967 2964 2960 2957 2954 2950 2947 2946 2945 2944 2942 2938 2933 2927 2925 2923 2922 2923 2926 2922 2915 2910 2902 2894 2898 2900 2899 2913
3065 3058 3051 3043 3033 3023 3016 3008 3002 2994 2988 2984 2982 2978 2974 2970 2967 2963 2960 2957 2954 2951 2948 2947 2946 2945 2943 2939 2932 2926 2925 2924 2924 2930 2937 2931 2922 2913 2903 2898 2901 2908 2910 2913
3065 3058 3049 3041 3032 3021 3014 3007 3002 2994 2990 2986 2983 2980 2975 2971 2968 2965 2961 2957 2954 2952 2949 2948 2948 2946 2944 2940 2932 2926 2927 2929 2929 2930 2930 2930 2927 2922 2916 2908 2910 2912 2918 2916
3063 3055 3046 3040 3031 3021 3014 3007 3003 2996 2992 2990 2986 2981 2977 2973 2969 2967 2963 2959 2955 2953 2951 2951 2949 2947 2944 2942 2937 2929 2929 2930 2931 2931 2930 2932 2931 2929 2926 2922 2921 2922 2922 2920
3061 3053 3045 3038 3029 3020 3010 3004 3001 2997 2994 2991 2988 2983 2978 2974 2971 2968 2964 2960 2957 2954 2953 2952 2950 2949 2948 2946 2940 2933 2931 2932 2932 2933 2932 2932 2935 2935 2934 2932 2930 2927 2924 2924
3059 3051 3043 3036 3027 3020 3012 3005 3001 2998 2996 2994 2990 2985 2981 2976 2973 2970 2966 2962 2959 2958 2954 2953 2952 2951 2950 2949 2945 2940 2935 2934 2934 2934 2934 2943 2947 2942 2938 2936 2934 2932 2930 2926
3057 3050 3043 3035 3026 3020 3013 3007 3003 2999 2997 2995 2992 2988 2984 2979 2975 2972 2968 2965 2962 2959 2956 2954 2953 2952 2952 2951 2949 2945 2940 2936 2936 2937 2939 2946 2944 2942 2939 2937 2936 2933 2931 2928
3058 3051 3041 3034 3027 3019 3013 3009 3003 3001 3000 2997 2994 2990 2987 2982 2977 2975 2972 2969 2966 2963 2961 2958 2958 2960 2960 2957 2953 2950 2947 2942 2940 2940 2942 2951 2948 2943 2938 2936 2936 2934 2931 2929
3060 3053 3041 3034 3027 3020 3015 3011 3006 3003 3001 3000 2996 2991 2989 2986 2983 2979 2976 2973 2971 2969 2966 2963 2966 2969 2968 2968 2963 2955 2946 2943 2945 2946 2946 2948 2948 2942 2939 2940 2943 2933 2931 2928
3060 3053 3044 3036 3029 3023 3019 3013 3009 3007 3004 3002 2998 2995 2993 2991 2988 2985 2983 2979 2975 2973 2970 2972 2974 2976 2975 2975 2972 2967 2963 2959 2956 2954 2952 2953 2950 2946 2944 2945 2937 2932 2929 2926
3062 3054 3045 3040 3032 3026 3021 3017 3013 3009 3008 3005 3002 2999 2997 2995 2993 2990 2986 2985 2981 2979 2978 2979 2981 2980 2980 2978 2976 2974 2972 2971 2968 2966 2961 2956 2952 2946 2944 2939 2934 2929 2925 2922
3063 3056 3049 3043 3035 3030 3025 3021 3017 3013 3010 3008 3005 3000 3000 2999 2997 2995 2994 2990 2987 2986 2986 2984 2984 2984 2983 2981 2980 2976 2973 2969 2966 2963 2959 2953 2949 2946 2942 2936 2931 2926 2922 2918
3062 3059 3053 3046 3040 3035 3031 3026 3020 3017 3013 3012 3010 3007 3004 3003 3001 2999 2997 2995 2993 2991 2989 2987 2986 2984 2985 2983 2983 2978 2975 2969 2963 2959 2955 2948 2947 2942 2935 2930 2926 2922 2918 2913
3063 3060 3055 3049 3044 3040 3036 3030 3026 3022 3019 3016 3013 3012 3008 3005 3003 3002 3000 2998 2996 2994 2991 2989 2988 2986 2986 2984 2981 2978 2976 2970 2964 2956 2953 2947 2940 2934 2929 2924 2919 2915 2910 2907
3065 3060 3057 3052 3048 3044 3040 3035 3030 3026 3022 3017 3016 3015 3011 3008 3006 3003 3002 3000 2998 2996 2994 2991 2989 2987 2986 2984 2983 2979 2974 2969 2963 2954 2947 2942 2936 2930 2923 2917 2912 2909 2905 2900
3066 3062 3060 3054 3051 3048 3043 3038 3037 3031 3027 3022 3019 3017 3015 3010 3007 3004 3003 3001 2999 2997 2995 2992 2990 2988 2987 2984 2978 2975 2969 2963 2956 2950 2940 2934 2928 2921 2918 2911 2906 2901 2896 2892
3067 3065 3062 3058 3057 3050 3048 3044 3040 3035 3030 3025 3023 3022 3016 3012 3007 3005 3002 3000 2999 2997 2995 2993 2990 2989 2987 2986 2980 2972 2964 2956 2950 2943 2937 2929 2922 2916 2910 2904 2898 2894 2890 2885
3070 3067 3062 3061 3062 3055 3050 3046 3043 3039 3036 3029 3028 3022 3017 3013 3007 3004 3002 3000 2999 2998 2997 2994 2992 2989 2988 2983 2976 2967 2959 2949 2940 2935 2929 2922 2916 2909 2903 2896 2891 2885 2880 2876
3073 3069 3064 3062 3063 3057 3053 3048 3045 3039 3035 3032 3030 3027 3021 3016 3010 3006 3003 3001 2999 2998 2999 2995 2992 2990 2989 2982 2973 2963 2954 2946 2937 2927 2919 2913 2907 2900 2894 2888 2882 2877 2872 2867
3075 3072 3065 3064 3061 3058 3052 3051 3045 3042 3040 3037 3035 3031 3025 3020 3013 3008 3006 3004 3002 3001 3000 2996 2994 2990 2986 2976 2967 2958 2949 2940 2933 2925 2916 2908 2900 2891 2884 2878 2873 2868 2863 2859
3077 3071 3067 3066 3061 3060 3060 3056 3054 3051 3049 3045 3037 3033 3029 3022 3015 3012 3009 3007 3006 3004 3000 2997 2994 2990 2981 2971 2962 2954 2945 2937 2928 2919 2910 2901 2892 2884 2876 2870 2864 2859 2854 2850
3077 3071 3069 3069 3071 3070 3068 3067 3063 3060 3054 3048 3041 3036 3032 3025 3020 3016 3013 3011 3010 3005 3002 3000 2995 2985 2976 2966 2956 2948 2941 2931 2922 2912 2903 2893 2884 2876 2869 2862 2857 2851 2846 2841
3078 3075 3074 3076 3078 3078 3075 3071 3067 3062 3056 3051 3044 3039 3034 3029 3024 3021 3019 3016 3011 3007 3003 2998 2990 2980 2970 2962 2953 2943 2934 2925 2915 2904 2893 2884 2875 2868 2862 2856 2850 2843 2837 2833
3078 3080 3083 3084 3082 3079 3076 3073 3070 3065 3059 3053 3046 3039 3035 3032 3029 3028 3025 3022 3017 3013 3006 2996 2986 2977 2967 2958 2949 2940 2930 2919 2909 2899 2888 2878 2869 2861 2853 2846 2839 2834 2829 2824
3083 3086 3087 3086 3083 3081 3079 3076 3071 3066 3059 3053 3047 3042 3038 3037 3036 3034 3030 3026 3021 3012 3003 2994 2984 2974 2965 2957 2948 2939 2928 2918 2907 2896 2885 2875 2866 2856 2848 2841 2835 2830 2823 2817
3091 3091 3089 3088 3086 3084 3080 3076 3071 3066 3061 3054 3049 3048 3046 3042 3040 3035 3032 3027 3018 3009 3000 2992 2983 2972 2964 2956 2948 2937 2927 2916 2905 2893 2883 2872 2863 2855 2846 2839 2832 2825 2819 2813